Weather in Klimovskaya

Russia / Arkhangel'skaya Oblast'     60°51′52″N   39°30′58″E
temp.,
°C
wind,
m/s
gust,
m/s
humid.,
%
clouds,
%
prec.,
mm/h
press.,
hPa
HPBL,
m
9 march, tue
tue900:00−23n279897 0.0 1014189
03:00−27n279862 0.0 1016139
06:00−28n389748 0.0 1018215
09:00−27nne379528 0.0 1019263
12:00−23n359473 0.0 1021387
15:00−20n369184 0.0 1021515
18:00−22n2396100 0.0 102382
21:00−26n269762 0.0 1025110
10 march, wed
wed1000:00−27n22980 0.0 102619
03:00−28nw12970 0.0 102719
06:00−27w22962 0.0 102722
09:00−21wnw269448 0.0 1027281
12:00−16nw3593100 0.1 1026446
15:00−14nw2592100 0.1 1027470
18:00−17nw229792 0.0 102720
21:00−19nw2210054 0.0 102826
11 march, thu
thu1100:00−20nw2210087 0.0 102837
03:00−20wnw2210081 0.0 102924
06:00−21wnw2210060 0.0 102927
09:00−17w239530 0.0 1029122
12:00−12wsw24900 0.0 1028275
15:00−10wsw35870 0.0 1027387
18:00−13sw25940 0.0 1025130
21:00−15sw38980 0.0 1025191
12 march, fri
fri1200:00−16sw399772 0.0 1023260
03:00−17sw3129578 0.0 1022268
06:00−19ssw399419 0.0 1022217
09:00−17ssw48949 0.0 1021246
12:00−10ssw49902 0.0 1020357
15:00−7s411871 0.0 1018543
18:00−9s513860 0.0 1017464
21:00−12s414890 0.0 1017520
13 march, sat
sat1300:00−12s4149263 0.0 1016612
03:00−12s5139382 0.1 1014602
06:00−12s51393100 0.2 1013639
09:00−10s51290100 0.3 1012717
12:00−7s51190100 0.1 1012773
15:00−6s51191100 0.3 1011790
18:00−7s41193100 0.4 1011769
21:00−7s41193100 0.6 1010604